Year,Month,Day,Hour,Minute,Value (Times are PST for temperature in C)
2007,09,19,00,00,8.90
2007,09,19,00,01,8.90
2007,09,19,00,02,9.00
2007,09,19,00,03,9.00
2007,09,19,00,04,9.00
2007,09,19,00,05,9.10
2007,09,19,00,06,9.10
2007,09,19,00,07,9.10
2007,09,19,00,08,9.20
2007,09,19,00,09,9.20
2007,09,19,00,10,9.20
2007,09,19,00,11,9.20
2007,09,19,00,12,9.20
2007,09,19,00,13,9.20
2007,09,19,00,14,9.20
2007,09,19,00,15,9.20
2007,09,19,00,16,9.20
2007,09,19,00,17,9.20
2007,09,19,00,18,9.20
2007,09,19,00,19,9.20
2007,09,19,00,20,9.20
2007,09,19,00,21,9.20
2007,09,19,00,22,9.20
2007,09,19,00,23,9.20
2007,09,19,00,24,9.20
2007,09,19,00,25,9.20
2007,09,19,00,26,9.20
2007,09,19,00,27,9.20
2007,09,19,00,28,9.20
2007,09,19,00,29,9.20
2007,09,19,00,30,9.20
2007,09,19,00,31,9.20
2007,09,19,00,32,9.10
2007,09,19,00,33,9.10
2007,09,19,00,34,9.10
2007,09,19,00,35,9.10
2007,09,19,00,36,9.10
2007,09,19,00,37,9.10
2007,09,19,00,38,9.10
2007,09,19,00,39,9.10
2007,09,19,00,40,9.10
2007,09,19,00,41,9.10
2007,09,19,00,42,9.10
2007,09,19,00,43,9.10
2007,09,19,00,44,9.10
2007,09,19,00,45,9.10
2007,09,19,00,46,9.10
2007,09,19,00,47,9.10
2007,09,19,00,48,9.10
2007,09,19,00,49,9.10
2007,09,19,00,50,9.10
2007,09,19,00,51,9.10
2007,09,19,00,52,9.10
2007,09,19,00,53,9.10
2007,09,19,00,54,9.10
2007,09,19,00,55,9.10
2007,09,19,00,56,9.10
2007,09,19,00,57,9.10
2007,09,19,00,58,9.10
2007,09,19,00,59,9.10
2007,09,19,01,00,9.10
2007,09,19,01,01,9.10
2007,09,19,01,02,9.20
2007,09,19,01,03,9.20
2007,09,19,01,04,9.20
2007,09,19,01,05,9.20
2007,09,19,01,06,9.20
2007,09,19,01,07,9.30
2007,09,19,01,08,9.30
2007,09,19,01,09,9.30
2007,09,19,01,10,9.30
2007,09,19,01,11,9.30
2007,09,19,01,12,9.30
2007,09,19,01,13,9.30
2007,09,19,01,14,9.30
2007,09,19,01,15,9.30
2007,09,19,01,16,9.20
2007,09,19,01,17,9.20
2007,09,19,01,18,9.20
2007,09,19,01,19,9.20
2007,09,19,01,20,9.20
2007,09,19,01,21,9.20
2007,09,19,01,22,9.20
2007,09,19,01,23,9.20
2007,09,19,01,24,9.20
2007,09,19,01,25,9.20
2007,09,19,01,26,9.20
2007,09,19,01,27,9.10
2007,09,19,01,28,9.10
2007,09,19,01,29,9.10
2007,09,19,01,30,9.10
2007,09,19,01,31,9.10
2007,09,19,01,32,9.10
2007,09,19,01,33,9.10
2007,09,19,01,34,9.10
2007,09,19,01,35,9.10
2007,09,19,01,36,9.10
2007,09,19,01,37,9.10
2007,09,19,01,38,9.10
2007,09,19,01,39,9.10
2007,09,19,01,40,9.10
2007,09,19,01,41,9.10
2007,09,19,01,42,9.10
2007,09,19,01,43,9.10
2007,09,19,01,44,9.10
2007,09,19,01,45,9.10
2007,09,19,01,46,9.10
2007,09,19,01,47,9.10
2007,09,19,01,48,9.00
2007,09,19,01,49,9.00
2007,09,19,01,50,9.00
2007,09,19,01,51,9.00
2007,09,19,01,52,8.90
2007,09,19,01,53,8.90
2007,09,19,01,54,8.90
2007,09,19,01,55,8.90
2007,09,19,01,56,8.90
2007,09,19,01,57,8.90
2007,09,19,01,58,8.90
2007,09,19,01,59,8.90
2007,09,19,02,00,8.90
2007,09,19,02,01,8.90
2007,09,19,02,02,8.80
2007,09,19,02,03,8.80
2007,09,19,02,04,8.80
2007,09,19,02,05,8.80
2007,09,19,02,06,8.80
2007,09,19,02,07,8.80
2007,09,19,02,08,8.80
2007,09,19,02,09,8.90
2007,09,19,02,10,8.90
2007,09,19,02,11,8.90
2007,09,19,02,12,8.90
2007,09,19,02,13,8.90
2007,09,19,02,14,8.90
2007,09,19,02,15,8.90
2007,09,19,02,16,8.90
2007,09,19,02,17,8.90
2007,09,19,02,18,8.90
2007,09,19,02,19,8.90
2007,09,19,02,20,8.90
2007,09,19,02,21,8.90
2007,09,19,02,22,8.90
2007,09,19,02,23,8.90
2007,09,19,02,24,8.90
2007,09,19,02,25,8.90
2007,09,19,02,26,8.80
2007,09,19,02,27,8.80
2007,09,19,02,28,8.80
2007,09,19,02,29,8.80
2007,09,19,02,30,8.80
2007,09,19,02,31,8.80
2007,09,19,02,32,8.80
2007,09,19,02,33,8.80
2007,09,19,02,34,8.80
2007,09,19,02,35,8.80
2007,09,19,02,36,8.70
2007,09,19,02,37,8.70
2007,09,19,02,38,8.80
2007,09,19,02,39,8.80
2007,09,19,02,40,8.70
2007,09,19,02,41,8.70
2007,09,19,02,42,8.70
2007,09,19,02,43,8.70
2007,09,19,02,44,8.70
2007,09,19,02,45,8.70
2007,09,19,02,46,8.70
2007,09,19,02,47,8.70
2007,09,19,02,48,8.70
2007,09,19,02,49,8.70
2007,09,19,02,50,8.70
2007,09,19,02,51,8.70
2007,09,19,02,52,8.70
2007,09,19,02,53,8.70
2007,09,19,02,54,8.70
2007,09,19,02,55,8.70
2007,09,19,02,56,8.70
2007,09,19,02,57,8.60
2007,09,19,02,58,8.60
2007,09,19,02,59,8.60
2007,09,19,03,00,8.60
2007,09,19,03,01,8.60
2007,09,19,03,02,8.60
2007,09,19,03,03,8.60
2007,09,19,03,04,8.50
2007,09,19,03,05,8.50
2007,09,19,03,06,8.50
2007,09,19,03,07,8.40
2007,09,19,03,08,8.40
2007,09,19,03,09,8.40
2007,09,19,03,10,8.50
2007,09,19,03,11,8.50
2007,09,19,03,12,8.50
2007,09,19,03,13,8.60
2007,09,19,03,14,8.60
2007,09,19,03,15,8.60
2007,09,19,03,16,8.60
2007,09,19,03,17,8.60
2007,09,19,03,18,8.70
2007,09,19,03,19,8.70
2007,09,19,03,20,8.80
2007,09,19,03,21,8.90
2007,09,19,03,22,9.00
2007,09,19,03,23,9.00
2007,09,19,03,24,9.20
2007,09,19,03,25,9.20
2007,09,19,03,26,9.20
2007,09,19,03,27,9.20
2007,09,19,03,28,9.20
2007,09,19,03,29,9.20
2007,09,19,03,30,9.20
2007,09,19,03,31,9.20
2007,09,19,03,32,9.20
2007,09,19,03,33,9.10
2007,09,19,03,34,9.00
2007,09,19,03,35,8.90
2007,09,19,03,36,8.80
2007,09,19,03,37,8.80
2007,09,19,03,38,8.80
2007,09,19,03,39,8.70
2007,09,19,03,40,8.70
2007,09,19,03,41,8.70
2007,09,19,03,42,8.70
2007,09,19,03,43,8.80
2007,09,19,03,44,8.90
2007,09,19,03,45,9.00
2007,09,19,03,46,9.10
2007,09,19,03,47,9.10
2007,09,19,03,48,9.10
2007,09,19,03,49,9.10
2007,09,19,03,50,9.10
2007,09,19,03,51,9.10
2007,09,19,03,52,9.10
2007,09,19,03,53,9.10
2007,09,19,03,54,9.10
2007,09,19,03,55,9.10
2007,09,19,03,56,9.10
2007,09,19,03,57,9.10
2007,09,19,03,58,9.00
2007,09,19,03,59,9.00
2007,09,19,04,00,9.00
2007,09,19,04,01,9.00
2007,09,19,04,02,9.00
2007,09,19,04,03,9.00
2007,09,19,04,04,8.90
2007,09,19,04,05,9.00
2007,09,19,04,06,9.00
2007,09,19,04,07,9.00
2007,09,19,04,08,9.00
2007,09,19,04,09,9.00
2007,09,19,04,10,9.00
2007,09,19,04,11,9.00
2007,09,19,04,12,9.00
2007,09,19,04,13,9.00
2007,09,19,04,14,9.00
2007,09,19,04,15,9.00
2007,09,19,04,16,9.00
2007,09,19,04,17,9.00
2007,09,19,04,18,9.00
2007,09,19,04,19,8.90
2007,09,19,04,20,8.90
2007,09,19,04,21,8.90
2007,09,19,04,22,8.90
2007,09,19,04,23,9.00
2007,09,19,04,24,9.00
2007,09,19,04,25,9.00
2007,09,19,04,26,9.00
2007,09,19,04,27,9.00
2007,09,19,04,28,8.90
2007,09,19,04,29,8.80
2007,09,19,04,30,8.80
2007,09,19,04,31,8.70
2007,09,19,04,32,8.60
2007,09,19,04,33,8.50
2007,09,19,04,34,8.50
2007,09,19,04,35,8.40
2007,09,19,04,36,8.30
2007,09,19,04,37,8.30
2007,09,19,04,38,8.30
2007,09,19,04,39,8.20
2007,09,19,04,40,8.20
2007,09,19,04,41,8.20
2007,09,19,04,42,8.30
2007,09,19,04,43,8.30
2007,09,19,04,44,8.30
2007,09,19,04,45,8.30
2007,09,19,04,46,8.30
2007,09,19,04,47,8.30
2007,09,19,04,48,8.40
2007,09,19,04,49,8.40
2007,09,19,04,50,8.50
2007,09,19,04,51,8.50
2007,09,19,04,52,8.60
2007,09,19,04,53,8.60
2007,09,19,04,54,8.60
2007,09,19,04,55,8.60
2007,09,19,04,56,8.60
2007,09,19,04,57,8.60
2007,09,19,04,58,8.70
2007,09,19,04,59,9.00
2007,09,19,05,00,9.10
2007,09,19,05,01,9.20
2007,09,19,05,02,9.30
2007,09,19,05,03,9.40
2007,09,19,05,04,9.40
2007,09,19,05,05,9.50
2007,09,19,05,06,9.50
2007,09,19,05,07,9.50
2007,09,19,05,08,9.50
2007,09,19,05,09,9.60
2007,09,19,05,10,9.60
2007,09,19,05,11,9.60
2007,09,19,05,12,9.60
2007,09,19,05,13,9.60
2007,09,19,05,14,9.50
2007,09,19,05,15,9.40
2007,09,19,05,16,9.30
2007,09,19,05,17,9.30
2007,09,19,05,18,9.30
2007,09,19,05,19,9.30
2007,09,19,05,20,9.40
2007,09,19,05,21,9.40
2007,09,19,05,22,9.40
2007,09,19,05,23,9.30
2007,09,19,05,24,9.30
2007,09,19,05,25,9.30
2007,09,19,05,26,9.30
2007,09,19,05,27,9.20
2007,09,19,05,28,9.20
2007,09,19,05,29,9.10
2007,09,19,05,30,9.10
2007,09,19,05,31,9.10
2007,09,19,05,32,9.20
2007,09,19,05,33,9.10
2007,09,19,05,34,9.10
2007,09,19,05,35,9.00
2007,09,19,05,36,9.00
2007,09,19,05,37,9.00
2007,09,19,05,38,9.00
2007,09,19,05,39,9.00
2007,09,19,05,40,9.00
2007,09,19,05,41,9.00
2007,09,19,05,42,9.00
2007,09,19,05,43,8.90
2007,09,19,05,44,9.00
2007,09,19,05,45,9.10
2007,09,19,05,46,9.20
2007,09,19,05,47,9.20
2007,09,19,05,48,9.20
2007,09,19,05,49,9.20
2007,09,19,05,50,9.10
2007,09,19,05,51,9.10
2007,09,19,05,52,9.00
2007,09,19,05,53,9.00
2007,09,19,05,54,8.90
2007,09,19,05,55,8.90
2007,09,19,05,56,8.90
2007,09,19,05,57,8.90
2007,09,19,05,58,8.90
2007,09,19,05,59,8.90
2007,09,19,06,00,8.90
2007,09,19,06,01,9.00
2007,09,19,06,02,9.00
2007,09,19,06,03,9.10
2007,09,19,06,04,9.10
2007,09,19,06,05,9.10
2007,09,19,06,06,9.10
2007,09,19,06,07,9.10
2007,09,19,06,08,9.00
2007,09,19,06,09,9.00
2007,09,19,06,10,8.90
2007,09,19,06,11,8.90
2007,09,19,06,12,8.80
2007,09,19,06,13,8.70
2007,09,19,06,14,8.70
2007,09,19,06,15,8.70
2007,09,19,06,16,8.70
2007,09,19,06,17,8.60
2007,09,19,06,18,8.50
2007,09,19,06,19,8.40
2007,09,19,06,20,8.30
2007,09,19,06,21,8.30
2007,09,19,06,22,8.20
2007,09,19,06,23,8.10
2007,09,19,06,24,8.00
2007,09,19,06,25,8.00
2007,09,19,06,26,7.90
2007,09,19,06,27,7.90
2007,09,19,06,28,7.90
2007,09,19,06,29,7.80
2007,09,19,06,30,7.80
2007,09,19,06,31,7.70
2007,09,19,06,32,7.60
2007,09,19,06,33,7.60
2007,09,19,06,34,7.50
2007,09,19,06,35,7.50
2007,09,19,06,36,7.50
2007,09,19,06,37,7.50
2007,09,19,06,38,7.60
2007,09,19,06,39,7.60
2007,09,19,06,40,7.60
2007,09,19,06,41,7.70
2007,09,19,06,42,7.80
2007,09,19,06,43,7.80
2007,09,19,06,44,7.80
2007,09,19,06,45,7.80
2007,09,19,06,46,7.90
2007,09,19,06,47,8.00
2007,09,19,06,48,8.00
2007,09,19,06,49,8.10
2007,09,19,06,50,8.10
2007,09,19,06,51,8.10
2007,09,19,06,52,8.10
2007,09,19,06,53,8.10
2007,09,19,06,54,8.10
2007,09,19,06,55,8.10
2007,09,19,06,56,8.20
2007,09,19,06,57,8.20
2007,09,19,06,58,8.20
2007,09,19,06,59,8.20
2007,09,19,07,00,8.20
2007,09,19,07,01,8.20
2007,09,19,07,02,8.20
2007,09,19,07,03,8.20
2007,09,19,07,04,8.20
2007,09,19,07,05,8.20
2007,09,19,07,06,8.20
2007,09,19,07,07,8.20
2007,09,19,07,08,8.20
2007,09,19,07,09,8.20
2007,09,19,07,10,8.20
2007,09,19,07,11,8.20
2007,09,19,07,12,8.20
2007,09,19,07,13,8.20
2007,09,19,07,14,8.20
2007,09,19,07,15,8.20
2007,09,19,07,16,8.20
2007,09,19,07,17,8.20
2007,09,19,07,18,8.30
2007,09,19,07,19,8.30
2007,09,19,07,20,8.40
2007,09,19,07,21,8.40
2007,09,19,07,22,8.40
2007,09,19,07,23,8.40
2007,09,19,07,24,8.40
2007,09,19,07,25,8.40
2007,09,19,07,26,8.40
2007,09,19,07,27,8.40
2007,09,19,07,28,8.40
2007,09,19,07,29,8.40
2007,09,19,07,30,8.40
2007,09,19,07,31,8.40
2007,09,19,07,32,8.40
2007,09,19,07,33,8.40
2007,09,19,07,34,8.40
2007,09,19,07,35,8.30
2007,09,19,07,36,8.30
2007,09,19,07,37,8.40
2007,09,19,07,38,8.40
2007,09,19,07,39,8.40
2007,09,19,07,40,8.50
2007,09,19,07,41,8.50
2007,09,19,07,42,8.50
2007,09,19,07,43,8.60
2007,09,19,07,44,8.60
2007,09,19,07,45,8.60
2007,09,19,07,46,8.60
2007,09,19,07,47,8.60
2007,09,19,07,48,8.70
2007,09,19,07,49,8.80
2007,09,19,07,50,8.90
2007,09,19,07,51,9.00
2007,09,19,07,52,9.10
2007,09,19,07,53,9.20
2007,09,19,07,54,9.20
2007,09,19,07,55,9.30
2007,09,19,07,56,9.40
2007,09,19,07,57,9.50
2007,09,19,07,58,9.50
2007,09,19,07,59,9.60
2007,09,19,08,00,9.70
2007,09,19,08,01,9.80
2007,09,19,08,02,9.80
2007,09,19,08,03,9.90
2007,09,19,08,04,9.90
2007,09,19,08,05,10.00
2007,09,19,08,06,10.10
2007,09,19,08,07,10.10
2007,09,19,08,08,10.20
2007,09,19,08,09,10.30
2007,09,19,08,10,10.30
2007,09,19,08,11,10.30
2007,09,19,08,12,10.30
2007,09,19,08,13,10.40
2007,09,19,08,14,10.40
2007,09,19,08,15,10.40
2007,09,19,08,16,10.50
2007,09,19,08,17,10.50
2007,09,19,08,18,10.60
2007,09,19,08,19,10.60
2007,09,19,08,20,10.70
2007,09,19,08,21,10.70
2007,09,19,08,22,10.80
2007,09,19,08,23,10.80
2007,09,19,08,24,10.80
2007,09,19,08,25,10.90
2007,09,19,08,26,10.90
2007,09,19,08,27,10.90
2007,09,19,08,28,10.90
2007,09,19,08,29,10.90
2007,09,19,08,30,10.90
2007,09,19,08,31,10.90
2007,09,19,08,32,11.00
2007,09,19,08,33,11.00
2007,09,19,08,34,11.10
2007,09,19,08,35,11.10
2007,09,19,08,36,11.20
2007,09,19,08,37,11.30
2007,09,19,08,38,11.30
2007,09,19,08,39,11.40
2007,09,19,08,40,11.40
2007,09,19,08,41,11.50
2007,09,19,08,42,11.50
2007,09,19,08,43,11.50
2007,09,19,08,44,11.60
2007,09,19,08,45,11.60
2007,09,19,08,46,11.60
2007,09,19,08,47,11.60
2007,09,19,08,48,11.60
2007,09,19,08,49,11.60
2007,09,19,08,50,11.60
2007,09,19,08,51,11.50
2007,09,19,08,52,11.40
2007,09,19,08,53,11.40
2007,09,19,08,54,11.40
2007,09,19,08,55,11.40
2007,09,19,08,56,11.40
2007,09,19,08,57,11.40
2007,09,19,08,58,11.40
2007,09,19,08,59,11.40
2007,09,19,09,00,11.40
2007,09,19,09,01,11.50
2007,09,19,09,02,11.60
2007,09,19,09,03,11.60
2007,09,19,09,04,11.70
2007,09,19,09,05,11.70
2007,09,19,09,06,11.70
2007,09,19,09,07,11.70
2007,09,19,09,08,11.70
2007,09,19,09,09,11.70
2007,09,19,09,10,11.70
2007,09,19,09,11,11.80
2007,09,19,09,12,11.80
2007,09,19,09,13,11.90
2007,09,19,09,14,11.90
2007,09,19,09,15,11.90
2007,09,19,09,16,12.00
2007,09,19,09,17,12.00
2007,09,19,09,18,12.10
2007,09,19,09,19,12.10
2007,09,19,09,20,12.10
2007,09,19,09,21,12.10
2007,09,19,09,22,12.10
2007,09,19,09,23,12.10
2007,09,19,09,24,12.10
2007,09,19,09,25,12.10
2007,09,19,09,26,12.10
2007,09,19,09,27,12.10
2007,09,19,09,28,12.10
2007,09,19,09,29,12.20
2007,09,19,09,30,12.20
2007,09,19,09,31,12.20
2007,09,19,09,32,12.30
2007,09,19,09,33,12.30
2007,09,19,09,34,12.30
2007,09,19,09,35,12.30
2007,09,19,09,36,12.40
2007,09,19,09,37,12.40
2007,09,19,09,38,12.40
2007,09,19,09,39,12.40
2007,09,19,09,40,12.40
2007,09,19,09,41,12.40
2007,09,19,09,42,12.40
2007,09,19,09,43,12.40
2007,09,19,09,44,12.50
2007,09,19,09,45,12.50
2007,09,19,09,46,12.50
2007,09,19,09,47,12.50
2007,09,19,09,48,12.60
2007,09,19,09,49,12.60
2007,09,19,09,50,12.70
2007,09,19,09,51,12.70
2007,09,19,09,52,12.70
2007,09,19,09,53,12.80
2007,09,19,09,54,12.80
2007,09,19,09,55,12.90
2007,09,19,09,56,12.90
2007,09,19,09,57,13.00
2007,09,19,09,58,13.00
2007,09,19,09,59,13.00
2007,09,19,10,00,13.10
2007,09,19,10,01,13.20
2007,09,19,10,02,13.20
2007,09,19,10,03,13.20
2007,09,19,10,04,13.10
2007,09,19,10,05,13.10
2007,09,19,10,06,13.20
2007,09,19,10,07,13.30
2007,09,19,10,08,13.30
2007,09,19,10,09,13.30
2007,09,19,10,10,13.30
2007,09,19,10,11,13.40
2007,09,19,10,12,13.40
2007,09,19,10,13,13.40
2007,09,19,10,14,13.40
2007,09,19,10,15,13.40
2007,09,19,10,16,13.40
2007,09,19,10,17,13.50
2007,09,19,10,18,13.60
2007,09,19,10,19,13.60
2007,09,19,10,20,13.70
2007,09,19,10,21,13.80
2007,09,19,10,22,13.90
2007,09,19,10,23,13.90
2007,09,19,10,24,14.00
2007,09,19,10,25,14.00
2007,09,19,10,26,14.00
2007,09,19,10,27,14.00
2007,09,19,10,28,14.00
2007,09,19,10,29,14.00
2007,09,19,10,30,14.00
2007,09,19,10,31,14.10
2007,09,19,10,32,14.10
2007,09,19,10,33,14.20
2007,09,19,10,34,14.20
2007,09,19,10,35,14.10
2007,09,19,10,36,14.10
2007,09,19,10,37,14.00
2007,09,19,10,38,14.00
2007,09,19,10,39,14.10
2007,09,19,10,40,14.10
2007,09,19,10,41,14.10
2007,09,19,10,42,14.20
2007,09,19,10,43,14.30
2007,09,19,10,44,14.30
2007,09,19,10,45,14.20
2007,09,19,10,46,14.10
2007,09,19,10,47,14.00
2007,09,19,10,48,14.10
2007,09,19,10,49,14.10
2007,09,19,10,50,14.20
2007,09,19,10,51,14.20
2007,09,19,10,52,14.30
2007,09,19,10,53,14.40
2007,09,19,10,54,14.40
2007,09,19,10,55,14.50
2007,09,19,10,56,14.50
2007,09,19,10,57,14.40
2007,09,19,10,58,14.40
2007,09,19,10,59,14.40
2007,09,19,11,00,14.40
2007,09,19,11,01,14.40
2007,09,19,11,02,14.40
2007,09,19,11,03,14.40
2007,09,19,11,04,14.50
2007,09,19,11,05,14.50
2007,09,19,11,06,14.60
2007,09,19,11,07,14.70
2007,09,19,11,08,14.80
2007,09,19,11,09,14.90
2007,09,19,11,10,15.00
2007,09,19,11,11,15.00
2007,09,19,11,12,15.00
2007,09,19,11,13,15.00
2007,09,19,11,14,15.00
2007,09,19,11,15,15.00
2007,09,19,11,16,15.00
2007,09,19,11,17,15.00
2007,09,19,11,18,15.00
2007,09,19,11,19,15.00
2007,09,19,11,20,15.00
2007,09,19,11,21,15.10
2007,09,19,11,22,15.20
2007,09,19,11,23,15.20
2007,09,19,11,24,15.30
2007,09,19,11,25,15.40
2007,09,19,11,26,15.40
2007,09,19,11,27,15.50
2007,09,19,11,28,15.50
2007,09,19,11,29,15.50
2007,09,19,11,30,15.50
2007,09,19,11,31,15.50
2007,09,19,11,32,15.50
2007,09,19,11,33,15.50
2007,09,19,11,34,15.40
2007,09,19,11,35,15.30
2007,09,19,11,36,15.30
2007,09,19,11,37,15.20
2007,09,19,11,38,15.20
2007,09,19,11,39,15.20
2007,09,19,11,40,15.20
2007,09,19,11,41,15.20
2007,09,19,11,42,15.20
2007,09,19,11,43,15.20
2007,09,19,11,44,15.30
2007,09,19,11,45,15.40
2007,09,19,11,46,15.60
2007,09,19,11,47,15.70
2007,09,19,11,48,15.80
2007,09,19,11,49,15.80
2007,09,19,11,50,15.90
2007,09,19,11,51,16.00
2007,09,19,11,52,16.10
2007,09,19,11,53,16.20
2007,09,19,11,54,16.30
2007,09,19,11,55,16.40
2007,09,19,11,56,16.50
2007,09,19,11,57,16.60
2007,09,19,11,58,16.70
2007,09,19,11,59,16.70
2007,09,19,12,00,16.80
2007,09,19,12,01,16.80
2007,09,19,12,02,16.80
2007,09,19,12,03,16.80
2007,09,19,12,04,16.80
2007,09,19,12,05,16.80
2007,09,19,12,06,16.80
2007,09,19,12,07,16.80
2007,09,19,12,08,16.80
2007,09,19,12,09,16.80
2007,09,19,12,10,16.80
2007,09,19,12,11,16.80
2007,09,19,12,12,16.80
2007,09,19,12,13,16.90
2007,09,19,12,14,16.90
2007,09,19,12,15,17.00
2007,09,19,12,16,17.10
2007,09,19,12,17,17.10
2007,09,19,12,18,17.20
2007,09,19,12,19,17.20
2007,09,19,12,20,17.30
2007,09,19,12,21,17.30
2007,09,19,12,22,17.30
2007,09,19,12,23,17.30
2007,09,19,12,24,17.30
2007,09,19,12,25,17.40
2007,09,19,12,26,17.40
2007,09,19,12,27,17.40
2007,09,19,12,28,17.40
2007,09,19,12,29,17.30
2007,09,19,12,30,17.30
2007,09,19,12,31,17.30
2007,09,19,12,32,17.30
2007,09,19,12,33,17.30
2007,09,19,12,34,17.40
2007,09,19,12,35,17.40
2007,09,19,12,36,17.40
2007,09,19,12,37,17.40
2007,09,19,12,38,17.50
2007,09,19,12,39,17.50
2007,09,19,12,40,17.50
2007,09,19,12,41,17.50
2007,09,19,12,42,17.50
2007,09,19,12,43,17.50
2007,09,19,12,44,17.50
2007,09,19,12,45,17.60
2007,09,19,12,46,17.70
2007,09,19,12,47,17.60
2007,09,19,12,48,17.60
2007,09,19,12,49,17.60
2007,09,19,12,50,17.60
2007,09,19,12,51,17.60
2007,09,19,12,52,17.70
2007,09,19,12,53,17.80
2007,09,19,12,54,17.80
2007,09,19,12,55,17.80
2007,09,19,12,56,17.70
2007,09,19,12,57,17.80
2007,09,19,12,58,17.80
2007,09,19,12,59,17.70
2007,09,19,13,00,17.80
2007,09,19,13,01,17.90
2007,09,19,13,02,18.00
2007,09,19,13,03,18.10
2007,09,19,13,04,18.10
2007,09,19,13,05,18.00
2007,09,19,13,06,18.10
2007,09,19,13,07,18.10
2007,09,19,13,08,18.00
2007,09,19,13,09,18.00
2007,09,19,13,10,18.10
2007,09,19,13,11,18.10
2007,09,19,13,12,18.20
2007,09,19,13,13,18.20
2007,09,19,13,14,18.30
2007,09,19,13,15,18.30
2007,09,19,13,16,18.30
2007,09,19,13,17,18.30
2007,09,19,13,18,18.40
2007,09,19,13,19,18.40
2007,09,19,13,20,18.30
2007,09,19,13,21,18.30
2007,09,19,13,22,18.30
2007,09,19,13,23,18.40
2007,09,19,13,24,18.40
2007,09,19,13,25,18.40
2007,09,19,13,26,18.50
2007,09,19,13,27,18.50
2007,09,19,13,28,18.60
2007,09,19,13,29,18.60
2007,09,19,13,30,18.70
2007,09,19,13,31,18.80
2007,09,19,13,32,18.80
2007,09,19,13,33,18.70
2007,09,19,13,34,18.60
2007,09,19,13,35,18.50
2007,09,19,13,36,18.40
2007,09,19,13,37,18.50
2007,09,19,13,38,18.60
2007,09,19,13,39,18.70
2007,09,19,13,40,18.70
2007,09,19,13,41,18.90
2007,09,19,13,42,18.90
2007,09,19,13,43,18.90
2007,09,19,13,44,19.00
2007,09,19,13,45,19.10
2007,09,19,13,46,19.10
2007,09,19,13,47,19.10
2007,09,19,13,48,19.00
2007,09,19,13,49,18.90
2007,09,19,13,50,18.80
2007,09,19,13,51,18.80
2007,09,19,13,52,18.70
2007,09,19,13,53,18.70
2007,09,19,13,54,18.60
2007,09,19,13,55,18.60
2007,09,19,13,56,18.60
2007,09,19,13,57,18.70
2007,09,19,13,58,18.70
2007,09,19,13,59,18.80
2007,09,19,14,00,18.80
2007,09,19,14,01,18.80
2007,09,19,14,02,18.70
2007,09,19,14,03,18.60
2007,09,19,14,04,18.60
2007,09,19,14,05,18.70
2007,09,19,14,06,18.70
2007,09,19,14,07,18.80
2007,09,19,14,08,19.00
2007,09,19,14,09,19.10
2007,09,19,14,10,19.30
2007,09,19,14,11,19.40
2007,09,19,14,12,19.50
2007,09,19,14,13,19.60
2007,09,19,14,14,19.60
2007,09,19,14,15,19.60
2007,09,19,14,16,19.60
2007,09,19,14,17,19.50
2007,09,19,14,18,19.50
2007,09,19,14,19,19.50
2007,09,19,14,20,19.60
2007,09,19,14,21,19.60
2007,09,19,14,22,19.70
2007,09,19,14,23,19.60
2007,09,19,14,24,19.60
2007,09,19,14,25,19.50
2007,09,19,14,26,19.50
2007,09,19,14,27,19.60
2007,09,19,14,28,19.60
2007,09,19,14,29,19.70
2007,09,19,14,30,19.80
2007,09,19,14,31,19.80
2007,09,19,14,32,19.70
2007,09,19,14,33,19.70
2007,09,19,14,34,19.70
2007,09,19,14,35,19.60
2007,09,19,14,36,19.60
2007,09,19,14,37,19.60
2007,09,19,14,38,19.60
2007,09,19,14,39,19.50
2007,09,19,14,40,19.50
2007,09,19,14,41,19.60
2007,09,19,14,42,19.60
2007,09,19,14,43,19.70
2007,09,19,14,44,19.70
2007,09,19,14,45,19.80
2007,09,19,14,46,19.90
2007,09,19,14,47,19.90
2007,09,19,14,48,20.00
2007,09,19,14,49,20.10
2007,09,19,14,50,20.10
2007,09,19,14,51,20.10
2007,09,19,14,52,20.10
2007,09,19,14,53,20.10
2007,09,19,14,54,20.20
2007,09,19,14,55,20.20
2007,09,19,14,56,20.30
2007,09,19,14,57,20.30
2007,09,19,14,58,20.30
2007,09,19,14,59,20.30
2007,09,19,15,00,20.30
2007,09,19,15,01,20.30
2007,09,19,15,02,20.20
2007,09,19,15,03,20.20
2007,09,19,15,04,20.20
2007,09,19,15,05,20.10
2007,09,19,15,06,20.00
2007,09,19,15,07,19.90
2007,09,19,15,08,19.80
2007,09,19,15,09,19.80
2007,09,19,15,10,19.80
2007,09,19,15,11,19.80
2007,09,19,15,12,19.90
2007,09,19,15,13,20.00
2007,09,19,15,14,20.00
2007,09,19,15,15,20.10
2007,09,19,15,16,20.20
2007,09,19,15,17,20.30
2007,09,19,15,18,20.30
2007,09,19,15,19,20.30
2007,09,19,15,20,20.20
2007,09,19,15,21,20.10
2007,09,19,15,22,20.00
2007,09,19,15,23,19.90
2007,09,19,15,24,19.90
2007,09,19,15,25,19.90
2007,09,19,15,26,19.90
2007,09,19,15,27,19.90
2007,09,19,15,28,19.90
2007,09,19,15,29,19.90
2007,09,19,15,30,19.90
2007,09,19,15,31,19.90
2007,09,19,15,32,19.90
2007,09,19,15,33,19.80
2007,09,19,15,34,19.80
2007,09,19,15,35,19.80
2007,09,19,15,36,19.70
2007,09,19,15,37,19.80
2007,09,19,15,38,19.80
2007,09,19,15,39,19.80
2007,09,19,15,40,19.80
2007,09,19,15,41,19.80
2007,09,19,15,42,19.80
2007,09,19,15,43,19.80
2007,09,19,15,44,19.80
2007,09,19,15,45,19.90
2007,09,19,15,46,20.00
2007,09,19,15,47,20.10
2007,09,19,15,48,20.20
2007,09,19,15,49,20.20
2007,09,19,15,50,20.30
2007,09,19,15,51,20.30
2007,09,19,15,52,20.30
2007,09,19,15,53,20.40
2007,09,19,15,54,20.40
2007,09,19,15,55,20.40
2007,09,19,15,56,20.40
2007,09,19,15,57,20.50
2007,09,19,15,58,20.60
2007,09,19,15,59,20.60
2007,09,19,16,00,20.70
2007,09,19,16,01,20.70
2007,09,19,16,02,20.80
2007,09,19,16,03,20.90
2007,09,19,16,04,20.90
2007,09,19,16,05,21.00
2007,09,19,16,06,21.00
2007,09,19,16,07,21.10
2007,09,19,16,08,21.10
2007,09,19,16,09,21.00
2007,09,19,16,10,20.90
2007,09,19,16,11,20.80
2007,09,19,16,12,20.70
2007,09,19,16,13,20.60
2007,09,19,16,14,20.60
2007,09,19,16,15,20.60
2007,09,19,16,16,20.60
2007,09,19,16,17,20.60
2007,09,19,16,18,20.60
2007,09,19,16,19,20.60
2007,09,19,16,20,20.50
2007,09,19,16,21,20.40
2007,09,19,16,22,20.30
2007,09,19,16,23,20.30
2007,09,19,16,24,20.30
2007,09,19,16,25,20.30
2007,09,19,16,26,20.30
2007,09,19,16,27,20.40
2007,09,19,16,28,20.40
2007,09,19,16,29,20.50
2007,09,19,16,30,20.60
2007,09,19,16,31,20.60
2007,09,19,16,32,20.70
2007,09,19,16,33,20.70
2007,09,19,16,34,20.60
2007,09,19,16,35,20.60
2007,09,19,16,36,20.50
2007,09,19,16,37,20.50
2007,09,19,16,38,20.40
2007,09,19,16,39,20.30
2007,09,19,16,40,20.30
2007,09,19,16,41,20.30
2007,09,19,16,42,20.20
2007,09,19,16,43,20.20
2007,09,19,16,44,20.20
2007,09,19,16,45,20.10
2007,09,19,16,46,20.10
2007,09,19,16,47,20.00
2007,09,19,16,48,20.00
2007,09,19,16,49,19.90
2007,09,19,16,50,19.90
2007,09,19,16,51,19.90
2007,09,19,16,52,19.90
2007,09,19,16,53,19.90
2007,09,19,16,54,19.90
2007,09,19,16,55,19.80
2007,09,19,16,56,19.70
2007,09,19,16,57,19.70
2007,09,19,16,58,19.70
2007,09,19,16,59,19.70
2007,09,19,17,00,19.70
2007,09,19,17,01,19.70
2007,09,19,17,02,19.70
2007,09,19,17,03,19.70
2007,09,19,17,04,19.70
2007,09,19,17,05,19.60
2007,09,19,17,06,19.70
2007,09,19,17,07,19.70
2007,09,19,17,08,19.60
2007,09,19,17,09,19.60
2007,09,19,17,10,19.60
2007,09,19,17,11,19.60
2007,09,19,17,12,19.50
2007,09,19,17,13,19.50
2007,09,19,17,14,19.50
2007,09,19,17,15,19.40
2007,09,19,17,16,19.40
2007,09,19,17,17,19.30
2007,09,19,17,18,19.30
2007,09,19,17,19,19.40
2007,09,19,17,20,19.30
2007,09,19,17,21,19.30
2007,09,19,17,22,19.20
2007,09,19,17,23,19.10
2007,09,19,17,24,19.10
2007,09,19,17,25,19.00
2007,09,19,17,26,18.90
2007,09,19,17,27,18.90
2007,09,19,17,28,18.80
2007,09,19,17,29,18.80
2007,09,19,17,30,18.80
2007,09,19,17,31,18.80
2007,09,19,17,32,18.80
2007,09,19,17,33,18.70
2007,09,19,17,34,18.70
2007,09,19,17,35,18.70
2007,09,19,17,36,18.70
2007,09,19,17,37,18.70
2007,09,19,17,38,18.70
2007,09,19,17,39,18.70
2007,09,19,17,40,18.80